Regional Weather Roundup
Issued by NWS

Home | Current Version | Previous Version | Text Only | Print | Product List | Glossary Off
Versions: 1 2 3 4 5 6 7 8 9 10 11 12 13 14 15 16 17 18 19 20 21 22 23 24 25 26 27 28 29 30 31 32 33 34 35 36 37 38 39 40 41 42 43 44 45 46 47 48 49 50

000
ASUS43 KOAX 291202
RWRNE

WEATHER ROUNDUP FOR NEBRASKA
NATIONAL WEATHER SERVICE OMAHA NE
700 AM CDT FRI APR 29 2016

NOTES: SATELLITE DATA IS BEING USED TO AUGMENT CLOUD COVER ABOVE
       12000 FEET.
       "FAIR" INDICATES FEW OR NO CLOUDS BELOW 12,000 FEET WITH NO
       SIGNIFICANT WEATHER AND/OR OBSTRUCTIONS TO VISIBILITY.

  * THESE STATIONS DO NOT REPORT WEATHER SUCH AS RAIN...SNOW OR FOG.

NEZ001>004-019>022-054>056-291300-
NEBRASKA PANHANDLE

CITY           SKY/WX    TMP DP  RH WIND       PRES   REMARKS
SCOTTSBLUFF    CLOUDY    36  33  89 NE5       30.08F WCI  32
6HR MIN TEMP:  34; 6HR MAX TEMP:  36;

ALLIANCE       CLOUDY    36  35  96 NE5       30.07F WCI  32
6HR MIN TEMP:  33; 6HR MAX TEMP:  37;

CHADRON        CLOUDY    37  35  92 N3        30.11S
6HR MIN TEMP:  37; 6HR MAX TEMP:  38;

KIMBALL        CLOUDY    33  33  99 E7        30.04F FOG     WCI  27
SIDNEY         CLOUDY    35  34  96 NE8       30.06F FOG     WCI  29
6HR MIN TEMP:  33; 6HR MAX TEMP:  35;

$$

NEZ057>060-069>072-079>082-291300-
SOUTHWEST NEBRASKA

CITY           SKY/WX    TMP DP  RH WIND       PRES   REMARKS
NORTH PLATTE   CLOUDY    39  36  89 NE7       30.08F WCI  34
6HR MIN TEMP:  39; 6HR MAX TEMP:  42;

IMPERIAL       CLOUDY    41  38  89 NE8       30.04F
6HR MIN TEMP:  41; 6HR MAX TEMP:  43;

LEXINGTON      CLOUDY    41  38  90 N7        30.07F
MCCOOK         MOCLDY    42  40  92 NE10      30.03F
6HR MIN TEMP:  42; 6HR MAX TEMP:  44; 6HR PCP: TRACE;

$$

NEZ005>010-023>029-035>040-094-291300-
NORTH CENTRAL NEBRASKA

CITY           SKY/WX    TMP DP  RH WIND       PRES   REMARKS
VALENTINE      CLOUDY    39  36  89 NW5       30.11F
6HR MIN TEMP:  39; 6HR MAX TEMP:  40;

AINSWORTH      CLOUDY    39  39  98 N5        30.11R
BROKEN BOW     CLOUDY    38  36  92 CALM      30.08S
6HR MIN TEMP:  37; 6HR MAX TEMP:  42;

O`NEILL        CLOUDY    40  39  96 NE3       30.12R FOG
ORD            CLOUDY    41  39  93 N7        30.08F
6HR MIN TEMP:  40; 6HR MAX TEMP:  42;

$$

NEZ041-046>049-061>064-073>077-083>087-291300-
SOUTH CENTRAL NEBRASKA

CITY           SKY/WX    TMP DP  RH WIND       PRES   REMARKS
GRAND ISLAND   CLOUDY    40  37  89 NE3       30.09R
6HR MIN TEMP:  40; 6HR MAX TEMP:  43;

AURORA         CLOUDY    41  40  97 N5        30.08S
HASTINGS       CLOUDY    40  38  93 N6        30.07S
6HR MIN TEMP:  40; 6HR MAX TEMP:  44;

KEARNEY *      CLOUDY    39  37  93 N8        30.08S WCI  34
YORK           CLOUDY    41  39  93 NE6       30.09R
$$

NEZ011>018-030>034-042>045-291300-
NORTHEAST NEBRASKA

CITY           SKY/WX    TMP DP  RH WIND       PRES   REMARKS
NORFOLK        CLOUDY    42  39  89 N6        30.10F
6HR MIN TEMP:  41; 6HR MAX TEMP:  42;

ALBION         CLOUDY    41  38  88 N7        30.09F
BLAIR          CLOUDY    43  41  92 N6        30.08F
COLUMBUS *     CLOUDY    43  34  70 N7        30.09F
FREMONT        CLOUDY    43  40  91 N6        30.10S
TEKAMAH        CLOUDY    43  41  93 N8        30.10F
6HR MIN TEMP:  43; 6HR MAX TEMP:  45;

$$

NEZ050>053-065>068-078-088>093-291300-
SOUTHEAST NEBRASKA

CITY           SKY/WX    TMP DP  RH WIND       PRES   REMARKS
LINCOLN        CLOUDY    45  40  82 N12       30.09S
6HR MIN TEMP:  45; 6HR MAX TEMP:  47;

OMAHA EPPLEY   CLOUDY    45  42  89 N8        30.09F
6HR MIN TEMP:  45; 6HR MAX TEMP:  46;

BEATRICE       CLOUDY    45  40  83 N13       30.05S
FALLS CITY     CLOUDY    46  39  76 NE10      30.05F
6HR MIN TEMP:  46; 6HR MAX TEMP:  50;

NEBRASKA CITY  CLOUDY    44  42  91 N17       30.05F
$$

NEZ044-045-051>053-067-291300-
OMAHA AREA

CITY           SKY/WX    TMP DP  RH WIND       PRES   REMARKS
OMAHA EPPLEY   CLOUDY    45  42  89 N8        30.09F
6HR MIN TEMP:  45; 6HR MAX TEMP:  46;

BLAIR          CLOUDY    43  41  92 N6        30.08F
FREMONT        CLOUDY    43  40  91 N6        30.10S
OFFUTT AFB     CLOUDY    45  42  89 N6        30.08F
WAHOO          CLOUDY    44  41  90 N6        30.09S
$$



USA.gov is the U.S. government's official web portal to all federal, state and local government web resources and services.